Location: Cudham
(51.3000°N, 0.0667°E)
Time: 23:38:34
(UTC+00:00)

CZ-2C R/B - Pass Details

Date: 15 May 2026
Orbit: 702 x 901 km, 98.2° (Epoch: 11 June)

Event Time Altitude Azimuth Distance (km) Brightness Sun altitude
Rises 22:59:32 0° 20° (NNE) 3,502 7.3 -18.6°
Reaches altitude 10° 23:02:14 10° 31° (NNE) 2,574 6.3 -18.7°
Maximum altitude 23:07:19 31° 93° (E) 1,518 4.4 -18.8°
Enters shadow 23:09:29 25° 130° (SE) 1,755 4.4 -18.9°
